User: anonymous   Login
Location: Congrier
(47.8099°N, 1.1170°W)
Time: 09:50:50
(UTC+00:00)
Language:

Cosmos 1190 Rocket - Orbit

View from above orbital plane
View from above orbital plane
View from above satellite
View from above satellite

Ground track
Ground track

The orbit data is extracted from the following two-line orbital elements,

1 11870U 80056B   23150.82580818  .00000133  00000-0  53472-4 0  9999
2 11870  74.0514 175.0750 0017414 304.7469  55.2044 14.37330883247031
Epoch (UTC): 30 May 2023 19:49:09
Eccentricity: 0.0017414
inclination: 74.0514°
perigee height: 755 km
apogee height: 780 km
right ascension of ascending node: 175.0750°
argument of perigee: 304.7469°
revolutions per day: 14.37330883
mean anomaly at epoch: 55.2044°
orbit number at epoch: 24703

The dashed part of the orbit path shows where the satellite is in the earth's shadow,  

DLR